This demonstration page uses our WeatherBlox Daily Observations layout. Learn more.

Left ArrowRight Arrow

38.83388, -104.82136

Hourly Observations for March 21, 2021

Temp ( °F °C ) Dew Point ( °F °C ) Humidity (%) Winds ( mph kmh ) Pressure ( in mb ) Visibility ( mi km ) Precip ( " mm )
12:58 am 00:58 Clear 52 11 18 -7.8 26 26 S 10 17 29.26 991 10 16 0.00 0.00
1:58 am 01:58 Clear 49 9.7 19 -7.3 30 30 WNW 14 22 29.27 991 10 16 0.00 0.00
2:47 am 02:47 Clear 50 10 19 -7 30 30 N 14 22 29.27 991 10 16 0.00 0.00
2:58 am 02:58 Clear 49 9.2 20 -6.8 32 32 NE 3 6 29.28 992 10 16 0.00 0.00
3:58 am 03:58 Clear 47 8.5 21 -6.1 35 35 NW 10 17 29.27 991 10 16 0.00 0.00
4:15 am 04:15 Clear 48 9 21 -6 34 34 NNW 12 19 29.28 992 10 16 0.00 0.00
4:58 am 04:58 Clear 46 7.6 22 -5.4 40 40 Calm 29.32 993 10 16 0.00 0.00
5:58 am 05:58 Mostly Clear 45 7.2 24 -4.3 44 44 NW 7 11 29.36 994 10 16 0.00 0.00
6:58 am 06:58 Clear 43 6 23 -5.2 45 45 Calm 29.41 996 10 16 0.00 0.00
7:58 am 07:58 Mostly Sunny 45 7.1 23 -5.2 42 42 Calm 29.47 998 10 16 0.00 0.00
8:58 am 08:58 Sunny 44 6.9 26 -3.5 48 48 S 13 20 29.46 998 10 16 0.00 0.00
9:49 am 09:49 Sunny 43 6 28 -2 57 57 SE 14 22 29.51 999 10 16 0.00 0.00
9:58 am 09:58 Sunny 42 5.8 29 -1.5 60 60 SSE 14 22 29.51 999 10 16 0.00 0.00
10:58 am 10:58 Mostly Cloudy 42 5.7 28 -2 58 58 SSE 14 22 29.52 1000 10 16 0.00 0.00
11:58 am 11:58 Mostly Cloudy 44 6.7 26 -3.4 49 49 SE 13 20 29.52 1000 10 16 0.00 0.00
12:58 pm 12:58 Cloudy 40 4.3 29 -1.9 64 64 SE 12 19 29.55 1001 10 16 0.00 0.00
1:13 pm 13:13 Cloudy with Haze 37 3 30 -1 75 75 SE 8 13 29.59 1002 3 5 0.00 0.00
1:18 pm 13:18 Cloudy with Haze 37 3 30 -1 75 75 SE 8 13 29.59 1002 3 4 0.00 0.00
1:43 pm 13:43 Cloudy with Mist and Fog 34 1 32 0 93 93 S 8 13 29.62 1003 5 8 0.00 0.00
1:53 pm 13:53 Cloudy with Mist and Fog 34 1 34 1 100 100 SSE 8 13 29.62 1003 3 5 0.00 0.00
1:58 pm 13:58 Cloudy with Mist and Fog 34 1.3 33 0.8 97 97 SSE 9 15 29.62 1003 5 8 0.02 0.51
2:03 pm 14:03 Cloudy 34 1 34 1 100 100 SSE 8 13 29.62 1003 10 16 0.00 0.00
2:13 pm 14:13 Cloudy 36 2 36 2 100 100 S 8 13 29.60 1002 9 14 0.00 0.00
2:58 pm 14:58 Cloudy with Haze 36 2.4 32 0 84 84 SSE 6 9 29.59 1002 4 6 0.01 0.25
3:03 pm 15:03 Cloudy 37 3 34 1 87 87 E 5 7 29.60 1002 7 11 0.00 0.00
3:48 pm 15:48 Cloudy 36 2 32 0 87 87 W 3 6 29.62 1003 10 16 0.00 0.00
3:58 pm 15:58 Cloudy with Haze 35 1.8 30 -1.1 81 81 SSW 3 6 29.62 1003 3 4 0.01 0.25
4:18 pm 16:18 Cloudy with Mist and Fog 36 2 32 0 87 87 N 6 9 29.62 1003 3 4 0.00 0.00
4:33 pm 16:33 Cloudy with Mist and Fog 34 1 32 0 93 93 NW 8 13 29.62 1003 7 11 0.00 0.00
4:43 pm 16:43 Cloudy with Mist and Fog 32 0 32 0 100 100 N 8 13 29.63 1004 1 1 0.00 0.00
4:53 pm 16:53 Cloudy with Mist and Fog 32 0 32 0 100 100 NNW 9 15 29.63 1004 1 2 0.00 0.00
4:58 pm 16:58 Cloudy with Mist and Fog 32 -0.1 32 -0.1 100 100 NNW 10 17 29.64 1004 1 2 0.02 0.51
5:08 pm 17:08 Cloudy with Mist and Fog 32 0 32 0 100 100 N 10 17 29.64 1004 2 3 0.00 0.00
5:48 pm 17:48 Cloudy with Mist and Fog 32 0 32 0 100 100 NW 8 13 29.65 1004 2 2 0.00 0.00
5:58 pm 17:58 Cloudy with Mist and Fog 31 -0.5 31 -0.4 100 100 N 10 17 29.65 1004 2 4 0.02 0.51
6:18 pm 18:18 Cloudy with Mist and Fog 30 -1 30 -1 100 100 NNW 10 17 29.69 1005 2 4 0.00 0.00
6:43 pm 18:43 Cloudy with Mist and Fog 30 -1 30 -1 100 100 NNW 14 22 29.67 1005 6 10 0.00 0.00
6:58 pm 18:58 Cloudy with Mist and Fog 30 -0.9 30 -0.9 100 100 NW 10 17 29.70 1006 3 5 0.01 0.25
7:13 pm 19:13 Cloudy with Mist and Fog 30 -1 30 -1 100 100 NNW 9 15 29.70 1006 7 11 0.00 0.00
7:23 pm 19:23 Cloudy with Mist and Fog 30 -1 30 -1 100 100 NNW 10 17 29.70 1006 2 4 0.00 0.00
7:38 pm 19:38 Cloudy with Mist and Fog 30 -1 30 -1 100 100 NNW 9 15 29.68 1005 7 11 0.00 0.00
7:58 pm 19:58 Cloudy with Freezing Fog 30 -1 29 -1.6 96 96 NNW 12 19 29.68 1005 1 1 0.01 0.25
8:28 pm 20:28 Mostly Cloudy with Freezing Fog 28 -2 28 -2 100 100 N 15 24 29.68 1005 0 0 0.00 0.00
8:38 pm 20:38 Cloudy with Freezing Fog 28 -2 28 -2 100 100 N 13 20 29.71 1006 3 5 0.00 0.00
8:53 pm 20:53 Cloudy with Mist and Fog 28 -2 28 -2 100 100 NNW 14 22 29.71 1006 1 2 0.00 0.00
8:58 pm 20:58 Cloudy with Mist and Fog 29 -1.4 29 -1.6 99 99 NNW 13 20 29.69 1006 1 2 0.01 0.25
9:03 pm 21:03 Cloudy with Mist and Fog 30 -1 28 -2 93 93 NNW 13 20 29.69 1006 7 11 0.00 0.00
9:28 pm 21:28 Cloudy with Freezing Fog 28 -2 28 -2 100 100 NNW 18 30 29.71 1006 1 1 0.00 0.00
9:58 pm 21:58 Cloudy with Freezing Fog 28 -2.1 27 -3 94 94 NNW 16 26 29.72 1007 1 1 0.01 0.25
10:03 pm 22:03 Mostly Cloudy with Freezing Fog 28 -2 27 -3 93 93 NNW 14 22 29.71 1006 3 5 0.00 0.00
10:08 pm 22:08 Cloudy with Freezing Fog 28 -2 27 -3 93 93 NW 17 28 29.71 1006 3 5 0.00 0.00
10:48 pm 22:48 Cloudy with Mist and Fog 28 -2 27 -3 93 93 NNW 16 26 29.72 1007 5 8 0.00 0.00
10:53 pm 22:53 Cloudy with Freezing Fog 28 -2 27 -3 93 93 NNW 14 22 29.72 1007 1 1 0.00 0.00
10:58 pm 22:58 Mostly Cloudy with Freezing Fog 27 -2.6 26 -3.1 96 96 NNW 14 22 29.73 1007 3 5 0.00 0.00
11:03 pm 23:03 Mostly Cloudy with Freezing Fog 27 -3 27 -3 100 100 NNW 14 22 29.73 1007 0 0 0.00 0.00
11:18 pm 23:18 Cloudy with Freezing Fog 27 -3 27 -3 100 100 NNW 13 20 29.74 1007 1 1 0.00 0.00
11:53 pm 23:53 Mostly Cloudy with Freezing Fog 27 -3 25 -4 93 93 NW 15 24 29.71 1006 3 5 0.00 0.00
11:58 pm 23:58 Mostly Cloudy with Freezing Fog 27 -2.7 25 -3.7 93 93 NNW 15 24 29.70 1006 0 0 0.01 0.25

Powered by AerisWeather